Location: Decatur Fire Department
(33.2330°N, 97.5852°W)
Time: 05:51:14
(UTC+00:00)

Daily predictions for brighter satellites

Satellite Brightness Start Highest point End
(mag) Time Altitude Azimuth Time Altitude Azimuth Time Altitude Azimuth
Cosmos 1943 Rocket 2.7 01:22:03 10° N 01:27:22 41° ENE 01:32:38 10° SE
Cosmos 2341 Rocket 4.3 01:23:52 10° SSE 01:29:48 48° E 01:35:49 10° NNE
NOSS 3-4 (A) 4.0 01:25:27 10° SW 01:30:32 54° WNW 01:35:55 10° NNE
NOSS 3-4 (C) 4.0 01:25:57 10° SW 01:31:03 55° WNW 01:36:29 10° NNE
Cosmos 2366 rocket 4.1 01:30:42 10° SSE 01:36:36 51° E 01:42:30 10° NNE
Cosmos 1703 Rocket 4.0 01:37:02 10° NNW 01:41:17 66° W 01:45:31 10° S
Cosmos 1933 Rocket 4.4 01:38:01 10° SSW 01:42:17 55° W 01:46:37 10° N
Cosmos 1733 Rocket 3.6 01:42:04 10° SSE 01:46:02 35° E 01:50:02 10° NNE
Resurs 01 Rocket 2.1 01:42:52 10° S 01:47:10 62° W 01:51:30 10° NNW
Cosmos 2278 Rocket 2.4 01:45:14 10° N 01:50:46 53° ENE 01:56:16 10° SE
Cosmos 1048 Rocket 4.3 01:45:53 10° N 01:50:53 48° ENE 01:55:54 10° SE
PSLV R/B 4.0 01:49:53 10° S 01:53:54 58° W 01:57:57 10° NNW
CZ-4 R/B 2.4 01:54:19 15° ESE 01:56:26 24° ENE 01:59:26 10° NNE
USA 32 4.3 01:53:31 10° SSE 01:58:28 46° E 02:03:27 10° NNE
Cosmos 1959 Rocket 4.5 01:53:59 10° S 02:00:16 71° E 02:06:33 10° N
OAO 3 Rocket 3.3 01:59:52 10° W 02:04:29 70° N 02:08:13 16° E
CSL-04 Debris 4.5 01:59:28 10° SE 02:04:30 46° ENE 02:09:38 10° N
CZ-4B R/B 4.1 02:06:03 19° SE 02:08:20 41° ENE 02:11:56 10° N
In-Cosmos 22 Rocket 4.2 02:04:07 10° N 02:09:25 79° W 02:14:45 10° S
Cosmos 1125 Rocket 3.7 02:04:46 10° SSW 02:09:57 78° WNW 02:15:13 10° NNE
SL-08 R/B 4.2 02:08:05 10° NE 02:12:16 28° E 02:14:33 19° SE
Cosmos 1821 Rocket 4.0 02:06:09 10° S 02:12:19 66° E 02:18:35 10° NNE
SL-16 R/B 2.4 02:08:46 10° S 02:14:05 44° ESE 02:19:27 10° NE
Cosmos 614 Rocket 4.5 02:09:23 10° N 02:14:12 39° ENE 02:16:51 23° ESE
Cosmos 2218 Rocket 4.1 02:10:52 10° S 02:17:00 78° W 02:23:10 10° N
ERS-1 Rocket 3.7 02:15:33 22° ESE 02:17:49 33° ENE 02:22:16 10° N
SJ-6B 4.0 02:14:48 10° SSW 02:18:12 38° W 02:21:37 10° NNW
OAO 3 Copernicus 4.4 02:18:22 10° W 02:23:23 74° N 02:26:20 25° E
OAO 2 Rocket 3.4 02:20:10 10° W 02:25:21 75° N 02:28:40 22° ENE
Meteor 2-15 Rocket 4.3 02:21:22 10° S 02:27:25 82° E 02:33:31 10° N
PAYLOAD B 4.4 02:27:33 25° SE 02:30:28 50° ENE 02:35:45 10° N
USA 234 3.4 02:24:23 10° NE 02:30:56 76° NW 02:37:27 10° SW
USA 59 Rocket 0.9 02:27:34 10° N 02:31:08 34° ENE 02:32:15 30° E
Helios 1A Rocket 3.0 02:31:21 10° N 02:34:29 54° WNW 02:37:35 10° SSW
IRAS Rocket 4.1 02:30:04 16° SSE 02:34:31 88° ENE 02:40:01 10° NNW
Cosmos 1400 Rocket 3.3 02:31:14 10° SSW 02:34:44 53° W 02:38:15 10° N
BREEZE-M DEB (TANK) 3.9 02:32:04 10° WNW 02:35:28 80° SW 02:41:32 25° SE
Cosmos 1346 Rocket 3.9 02:35:52 10° NNE 02:38:05 25° NE 02:38:05 25° NE
Cosmos 1656 Rocket 4.2 02:37:31 10° N 02:42:39 39° ENE 02:43:51 35° E
Meteor 1-31 Rocket 2.9 02:42:18 32° SSW 02:43:44 60° WSW 02:47:13 10° NNW
Cosmos 44 3.9 02:39:53 10° SW 02:44:42 60° WNW 02:49:51 10° NNE
Geosat 3.8 02:40:27 10° NNE 02:45:26 68° ESE 02:50:23 10° SSW
SL-4 R/B 1.6 02:43:04 10° SW 02:46:48 75° SE 02:47:05 70° E
USA 238 DEB 4.1 02:39:25 10° NNW 02:47:11 83° WSW 02:52:18 26° SSE
USA 238 4.1 02:39:36 10° NNW 02:47:21 84° WSW 02:52:26 26° SSE
Cosmos 2285 Rocket 3.9 02:41:24 10° S 02:47:41 67° ESE 02:53:59 10° NNE
CSL-04 Rocket 4.3 02:43:59 11° S 02:49:15 57° W 02:54:44 10° NNW
Okean-O 3.9 02:53:57 26° NE 02:53:57 26° NE 02:56:51 10° NNE
SPOT 5 4.0 02:49:08 10° SSW 02:53:26 38° W 02:57:35 10° NNW
BREEZE-M DEB (TANK) 4.2 02:49:19 10° NW 02:54:18 34° NNE 02:54:31 33° NNE
SKYMED 3 4.3 02:50:30 10° N 02:54:22 77° WNW 02:55:53 36° SSW
Feng Yun 1-1 Rocket 4.2 02:53:27 30° S 02:56:21 83° WSW 03:01:49 10° NNW
Cosmos 1674 Rocket 3.4 02:54:04 10° N 02:58:25 72° E 02:58:33 71° E
Cosmos 1908 Rocket 3.4 02:59:30 72° E 02:59:30 72° E 03:03:45 10° N
Cosmos 2150 Rocket 3.9 02:56:54 10° SSW 03:02:01 82° WNW 03:07:12 10° NNE
Gbstr 26 Del rocket 3.2 02:56:45 10° SW 03:02:29 88° SE 03:04:52 30° NE
Okean O Rocket 2.6 03:03:31 33° NE 03:03:31 33° NE 03:06:31 10° N
MOS 1 4.3 03:03:40 36° S 03:06:05 78° WSW 03:11:46 10° NNW
Terra 1.7 03:06:02 62° S 03:06:48 85° WSW 03:11:31 10° NNW
Mugunghwa Rocket 4.4 03:01:54 10° WSW 03:08:08 44° S 03:08:35 43° SSE
NOSS 2-1 (D) 3.5 03:05:44 10° NNW 03:09:27 73° NE 03:09:27 73° NE
Cosmos 1943 Rocket 4.3 03:06:32 10° NW 03:10:43 22° W 03:14:52 10° SSW
Cosmos 1378 Rocket 4.3 03:06:44 10° NNW 03:10:56 48° W 03:12:07 37° SW
NOSS 2-1 (E) 4.0 03:13:03 10° NNW 03:16:08 53° N 03:16:08 53° N
Cosmos 2369 Rocket 3.1 03:12:38 10° N 03:17:11 34° NE 03:17:11 34° NE
ADEOS 3.7 03:19:17 57° SSW 03:20:14 71° WSW 03:25:26 10° NNW
NOSS 2-1 (C) 3.9 03:18:40 10° NNW 03:21:52 62° NNW 03:21:52 62° NNW
Cosmos 1943 3.6 03:27:20 49° NE 03:27:20 49° NE 03:31:31 10° NNE
ASTEX 1 3.4 03:26:48 74° NNW 03:26:48 74° NNW 03:31:17 10° N
CZ-4B R/B 3.6 03:25:11 44° SSW 03:26:41 59° WSW 03:32:15 10° NNW
Cosmos 1025 Rocket 3.7 03:25:23 10° NNW 03:29:03 50° WNW 03:29:03 50° WNW
CZ-4 R/B 3.7 03:29:16 15° WSW 03:30:22 16° W 03:32:46 10° NW
Cosmos 1934 Rocket 4.0 03:30:37 49° SSW 03:32:28 79° W 03:38:42 10° N
SL-16 R/B 4.5 03:54:05 10° WSW 03:58:20 22° WNW 04:02:37 10° N
Milstar 3 3.9 03:55:57 10° SW 04:20:09 - E 04:02:46 52° S
Cosmos 2123 Rocket 4.5 03:58:34 10° NNW 04:04:40 54° W 04:04:52 54° W
USA 59 Rocket 2.7 04:16:34 10° WNW 04:17:48 15° W 04:17:48 15° W
COSMOS 2455 4.5 04:26:57 10° N 04:30:05 27° NNE 04:30:05 27° NNE
Cosmos 2369 Rocket 4.4 04:56:58 10° NW 04:58:59 19° WNW 04:58:59 19° WNW
ACS3 Solar Sail 4.3 06:28:41 10° NE 06:29:12 12° NE 06:29:12 12° NE
ATLAS 3B R/B 4.2 06:46:00 10° NNW 06:50:58 34° NNE 06:50:58 34° NNE
Cosmos 2082 Rocket 4.4 07:46:37 19° N 07:46:37 19° N 07:48:22 10° N
USA 281 4.3 07:58:47 38° ENE 07:58:47 38° ENE 08:04:33 10° N
SL-16 R/B 3.9 08:08:33 10° N 08:11:55 29° NNE 08:11:55 29° NNE
ACS3 Solar Sail 3.4 08:10:01 10° N 08:12:45 26° NNW 08:12:45 26° NNW
IDEFIX/ARIANE 42P 4.5 08:38:07 10° N 08:40:08 23° NNW 08:40:08 23° NNW
Envisat 4.4 08:38:41 10° NNE 08:41:55 34° NE 08:41:55 34° NE
USA 267 3.5 08:37:39 10° NE 08:43:24 62° N 08:43:24 62° N
Meteor 1-27 Rocket 4.4 08:53:08 51° E 08:53:08 51° E 08:58:37 10° NNE
ALOS 4.0 08:48:58 10° NNE 08:51:38 30° NE 08:51:38 30° NE
ADEOS II 3.2 08:54:59 10° NNE 08:59:43 38° E 08:59:43 38° E
ATLAS 5 CENTAUR R/B 3.4 09:05:36 47° ESE 09:05:49 47° ESE 09:16:24 10° NE
CZ-2D R/B 2.4 09:04:56 10° NNE 09:09:35 63° ENE 09:09:35 63° ENE
DELTA 2 R/B (1) 4.1 09:15:52 51° ESE 09:15:52 51° ESE 09:20:19 10° ENE
Cosmos 1354 Rocket 4.3 09:13:32 10° N 09:18:46 64° ENE 09:18:58 64° E
SL-4 R/B 4.5 09:19:24 13° N 09:21:29 19° NNE 09:24:15 10° ENE
Cosmos 468 Rocket 4.3 09:26:47 56° NNW 09:26:47 56° NNW 09:31:12 10° N
Cosmos 2360 Rocket 2.2 09:21:22 10° NNW 09:27:03 77° ENE 09:29:01 42° SSE
Cosmos 1766 Rocket 4.3 09:25:03 10° N 09:29:13 47° E 09:29:26 46° E
Cosmos 2333 Rocket 3.4 09:23:51 10° NNW 09:26:40 29° NW 09:26:40 29° NW
ADEOS Rocket 4.1 09:28:52 10° N 09:35:47 38° WNW 09:36:33 37° W
CZ-3 Stage 3 3.1 09:33:58 51° WSW 09:36:10 78° S 09:58:35 10° E
Resurs 1-4 Rocket 2.4 09:32:47 10° N 09:37:29 53° NW 09:37:29 53° NW
ISS -1.5 09:41:04 21° N 09:41:04 21° N 09:42:38 10° NNE
Cosmos 1553 Rocket 4.3 09:38:05 28° SSE 09:41:21 63° E 09:47:30 10° NNE
Cosmos 2322 Rocket 2.0 09:36:56 10° NNW 09:42:33 71° WSW 09:43:00 67° SW
USA 281 4.4 09:45:37 25° WNW 09:45:37 25° WNW 09:48:50 10° NW
SL-19 R/B 4.4 09:40:40 10° N 09:46:24 69° WNW 09:47:40 54° SW
H-2A R/B 2.0 09:44:51 10° N 09:49:59 64° WNW 09:50:28 61° WSW
Cosmos 1461 4.0 09:51:56 29° NNW 09:51:56 29° NNW 09:54:16 10° NNE
Cosmos 2219 Rocket 2.2 09:50:27 10° NNW 09:56:07 81° ENE 10:01:46 10° SSE
SL-16 R/B 4.2 09:52:59 10° NW 09:53:41 13° NW 09:53:41 13° NW
H-2A R/B 4.1 10:01:10 18° NNW 10:01:10 18° NNW 10:02:13 10° NNW
Meteor 1-11 Rocket 4.2 09:56:06 10° NNW 10:01:15 39° W 10:01:15 39° W
ARGOS 3.2 09:59:31 10° NNE 10:04:55 75° ESE 10:08:16 23° S
METEOR-M 4.1 10:01:18 10° N 10:06:34 66° WNW 10:08:23 41° SW
Cosmos 2084 Rocket 3.4 10:03:03 10° NNW 10:07:18 83° ENE 10:11:33 10° SSE
Meteor 2-11 Rocket 4.4 10:02:41 10° N 10:08:52 86° W 10:14:59 10° S
Cosmos 1151 Rocket 3.8 10:07:41 15° SSE 10:10:52 48° E 10:14:57 10° NNE
Gbstr 26 Del rocket 4.1 10:09:13 10° NNW 10:12:42 38° NE 10:16:21 10° ESE
Cosmos 372 Rocket 3.9 10:07:49 10° NNW 10:12:59 88° ENE 10:18:04 10° SSE
Cosmos 1842 Rocket 3.8 10:14:10 44° W 10:14:19 44° W 10:18:26 10° N
Meteor 2-4 Rocket 4.4 10:22:34 29° W 10:23:23 30° WNW 10:28:03 10° NNW
AQUA 3.7 10:18:47 10° N 10:23:25 69° WNW 10:25:57 27° SSW
Cosmos 1758 4.3 10:22:17 10° N 10:25:45 42° E 10:29:11 10° SSE
Aureole 1 Rocket 3.6 10:21:13 10° NNW 10:25:49 50° WSW 10:31:31 10° S
USA 307 3.8 10:27:45 15° SE 10:28:23 17° ESE 10:30:22 10° ENE
ALOS 4.0 10:27:05 10° NNW 10:29:40 16° WNW 10:29:40 16° WNW
Alouette 2 Rocket 4.4 10:28:25 10° NW 10:30:40 25° WNW 10:30:40 25° WNW
Sich 1 2.8 10:28:04 10° N 10:32:13 82° W 10:36:20 10° S
Cosmos 1417 Rocket 4.4 10:27:50 10° S 10:34:02 90° SSE 10:40:12 10° N
SL-08 R/B 4.5 10:30:08 10° NNW 10:36:25 67° W 10:42:39 10° S
Okean 3 Rocket 3.5 10:32:09 10° N 10:36:36 78° W 10:41:04 10° S
ADEOS II 3.4 10:35:10 10° NNW 10:39:03 22° WNW 10:40:31 19° W
Cosmos 2297 Rocket 2.2 10:34:56 12° SSW 10:40:06 87° ESE 10:45:46 10° NNE
BREEZE-M DEB (TANK) 4.3 10:37:24 10° NW 10:42:37 87° SW 10:58:46 10° SE
Cosmos 1805 Rocket 3.8 10:39:57 10° N 10:44:21 72° E 10:48:39 10° SSE
CZ-2D R/B 4.0 10:47:25 10° NW 10:49:32 12° WNW 10:50:50 11° WNW
H-2A R/B 2.4 10:47:00 10° N 10:50:41 37° WNW 10:53:10 18° SW
S3M 4.0 10:47:49 10° SSW 10:54:10 73° W 11:00:29 10° N
Cosmos 2263 Rocket 4.4 10:50:56 10° SSE 10:55:25 25° ESE 10:59:53 10° NE
Cosmos 158 Rocket 4.0 10:50:31 10° SSW 10:55:42 88° ESE 11:01:03 10° NNE
Cosmos 1898 Rocket 3.7 10:50:46 10° NNW 10:55:42 47° WSW 11:00:38 10° S
COSMOS 2428 2.8 10:50:53 10° NNW 10:56:36 81° ENE 11:02:16 10° SSE
NOSS 3-4 (A) 4.1 10:50:35 10° NW 10:57:47 59° WSW 11:06:02 10° SSE
NOSS 3-4 (C) 4.1 10:51:08 10° NW 10:58:21 60° WSW 11:06:37 10° SSE
USA 234 3.3 10:52:12 10° SE 10:58:45 89° NE 11:05:19 10° NW
SL-4 R/B 1.8 10:55:24 10° NW 10:59:07 52° SW 11:02:41 10° SSE
Cosmos 1937 Rocket 3.4 10:54:38 10° NNW 10:59:45 63° WSW 11:04:46 10° S
SL-16 R/B 2.6 10:54:25 10° S 11:00:33 60° WSW 11:06:45 10° NNW
DELTA 2 R/B (1) 4.0 10:56:33 13° W 11:01:20 54° NNW 11:06:46 10° ENE
CZ-3 R/B 3.0 10:44:30 10° W 11:08:59 66° SSW 11:15:55 10° ESE
Cosmos 2360 Rocket 3.9 11:09:04 10° W 11:10:14 11° W 11:10:32 11° W
Cosmos 1939 Rocket 2.6 11:08:49 10° N 11:12:27 84° WNW 11:16:08 10° SSW
Meteor 2-10 Rocket 4.5 11:09:41 10° NW 11:13:58 27° W 11:18:23 10° SSW
CZ-2C R/B 2.7 11:11:44 10° N 11:16:17 45° WNW 11:20:42 10° SW
Meteor 1-13 Rocket 4.3 11:11:57 10° S 11:17:27 84° E 11:22:59 10° N
Cosmos 1408 Rocket 4.2 11:20:46 10° NNW 11:24:34 32° W 11:28:21 10° SSW
Meteor 1-28 Rocket 2.8 11:21:52 10° S 11:25:04 57° W 11:28:17 10° NNW
Cosmos 1814 Rocket 4.2 11:21:23 10° SW 11:26:18 49° WNW 11:31:16 10° N
Cosmos 1703 3.1 11:24:20 10° SSW 11:27:26 45° W 11:30:33 10° N
